Wetterdaten: Freitag, 22.11.2013
Datum Zeit Temperatur Luftfeuchte Luftdruck Regen Wind Richtung Richtung Taupunkt Windchill Windben
22.11.2013 00:00 1,2 C 92 % 999,2 hPa 0,0 l/m 4,0 km/h (1 Bft) N-NW 337 0,0 C 0,3 C 7,2 km/h (2 Bft)
22.11.2013 00:05 1,2 C 92 % 998,9 hPa 0,0 l/m 4,2 km/h (1 Bft) NW 315 0,0 C 0,2 C 1,9 km/h (1 Bft)
22.11.2013 00:10 1,2 C 92 % 998,9 hPa 0,0 l/m 4,3 km/h (1 Bft) N-NO 22 0,0 C 0,2 C 6,9 km/h (2 Bft)
22.11.2013 00:15 1,2 C 92 % 998,9 hPa 0,0 l/m 4,2 km/h (1 Bft) N 360 0,0 C 0,2 C 6,6 km/h (2 Bft)
22.11.2013 00:20 1,2 C 92 % 998,9 hPa 0,0 l/m 4,8 km/h (1 Bft) NO 45 0,0 C -0,1 C 4,3 km/h (1 Bft)
22.11.2013 00:25 1,2 C 92 % 998,8 hPa 0,0 l/m 5,0 km/h (1 Bft) N 360 0,0 C -0,2 C 9,8 km/h (2 Bft)
22.11.2013 00:30 1,2 C 92 % 998,8 hPa 0,0 l/m 4,5 km/h (1 Bft) W-NW 292 0,0 C 0,1 C 7,9 km/h (2 Bft)
22.11.2013 00:35 1,2 C 92 % 998,8 hPa 0,0 l/m 4,8 km/h (1 Bft) N-NW 337 0,0 C -0,1 C 10,3 km/h (2 Bft)
22.11.2013 00:40 1,2 C 92 % 998,8 hPa 0,0 l/m 4,8 km/h (1 Bft) N-NW 337 0,0 C -0,1 C 4,5 km/h (1 Bft)
22.11.2013 00:45 1,2 C 92 % 998,6 hPa 0,0 l/m 3,5 km/h (1 Bft) W-NW 292 0,0 C 0,6 C 7,2 km/h (2 Bft)
22.11.2013 00:50 1,2 C 92 % 998,6 hPa 0,0 l/m 4,7 km/h (1 Bft) N 360 0,0 C -0,1 C 5,3 km/h (1 Bft)
22.11.2013 00:55 1,1 C 93 % 998,6 hPa 0,0 l/m 5,5 km/h (1 Bft) N-NW 337 0,1 C -0,4 C 6,8 km/h (2 Bft)
22.11.2013 01:00 1,1 C 93 % 998,6 hPa 0,0 l/m 6,0 km/h (2 Bft) N 360 0,1 C -0,6 C 12,2 km/h (2 Bft)
22.11.2013 01:05 1,1 C 93 % 998,5 hPa 0,0 l/m 6,0 km/h (2 Bft) N-NW 337 0,1 C -0,6 C 14,8 km/h (3 Bft)
22.11.2013 01:10 1,1 C 93 % 998,5 hPa 0,0 l/m 5,5 km/h (1 Bft) N 360 0,1 C -0,4 C 6,1 km/h (2 Bft)
22.11.2013 01:15 1,1 C 93 % 998,5 hPa 0,0 l/m 5,5 km/h (1 Bft) W-NW 292 0,1 C -0,4 C 5,6 km/h (1 Bft)
22.11.2013 01:20 1,1 C 93 % 998,5 hPa 0,0 l/m 5,3 km/h (1 Bft) N-NW 337 0,1 C -0,3 C 5,8 km/h (2 Bft)
22.11.2013 01:25 1,1 C 93 % 998,4 hPa 0,0 l/m 5,5 km/h (1 Bft) N-NW 337 0,1 C -0,4 C 6,1 km/h (2 Bft)
22.11.2013 01:30 1,1 C 93 % 998,4 hPa 0,0 l/m 4,7 km/h (1 Bft) N 360 0,1 C -0,1 C 2,7 km/h (1 Bft)
22.11.2013 01:35 1,1 C 93 % 998,4 hPa 0,0 l/m 4,7 km/h (1 Bft) N 360 0,1 C -0,1 C 7,6 km/h (2 Bft)
22.11.2013 01:40 1,1 C 93 % 998,4 hPa 0,0 l/m 5,0 km/h (1 Bft) NW 315 0,1 C -0,2 C 6,6 km/h (2 Bft)
22.11.2013 01:45 1,1 C 93 % 998,6 hPa 0,0 l/m 5,5 km/h (1 Bft) NO 45 0,1 C -0,4 C 1,9 km/h (1 Bft)
22.11.2013 01:50 1,1 C 93 % 998,6 hPa 0,0 l/m 5,0 km/h (1 Bft) N-NW 337 0,1 C -0,2 C 6,8 km/h (2 Bft)
22.11.2013 01:55 1,1 C 93 % 998,6 hPa 0,0 l/m 4,5 km/h (1 Bft) N 360 0,1 C 0,0 C 6,8 km/h (2 Bft)
22.11.2013 02:00 1,1 C 93 % 998,6 hPa 0,0 l/m 5,1 km/h (1 Bft) W-NW 292 0,1 C -0,3 C 6,1 km/h (2 Bft)
22.11.2013 02:05 1,1 C 93 % 998,6 hPa 0,0 l/m 5,6 km/h (1 Bft) NW 315 0,1 C -0,5 C 7,1 km/h (2 Bft)
22.11.2013 02:10 1,1 C 93 % 998,6 hPa 0,0 l/m 6,1 km/h (2 Bft) W-NW 292 0,1 C -0,7 C 8,4 km/h (2 Bft)
22.11.2013 02:15 1,1 C 93 % 998,6 hPa 0,0 l/m 6,3 km/h (2 Bft) NO 45 0,1 C -0,7 C 7,1 km/h (2 Bft)
22.11.2013 02:20 1,1 C 93 % 998,6 hPa 0,0 l/m 5,5 km/h (1 Bft) N-NW 337 0,1 C -0,6 C 6,9 km/h (2 Bft)
22.11.2013 02:25 1,1 C 93 % 998,8 hPa 0,0 l/m 5,0 km/h (1 Bft) N-NW 337 0,1 C -0,3 C 3,7 km/h (1 Bft)
22.11.2013 02:30 1,1 C 93 % 998,8 hPa 0,0 l/m 5,1 km/h (1 Bft) N-NW 337 0,1 C -0,3 C 5,5 km/h (1 Bft)
22.11.2013 02:35 1,1 C 93 % 998,8 hPa 0,0 l/m 4,5 km/h (1 Bft) N 360 0,1 C 0,0 C 8,7 km/h (2 Bft)
22.11.2013 02:40 1,1 C 92 % 998,8 hPa 0,0 l/m 5,1 km/h (1 Bft) W-NW 292 -0,1 C -0,4 C 4,8 km/h (1 Bft)
22.11.2013 02:45 1,1 C 92 % 998,6 hPa 0,0 l/m 4,7 km/h (1 Bft) W-NW 292 -0,1 C -0,2 C 7,2 km/h (2 Bft)
22.11.2013 02:50 1,1 C 92 % 998,6 hPa 0,0 l/m 3,7 km/h (1 Bft) N-NO 22 -0,1 C 0,3 C 0,0 km/h (0 Bft)
22.11.2013 02:53 1,1 C 92 % 998,6 hPa 0,0 l/m 3,1 km/h (1 Bft) N-NW 337 -0,1 C 0,7 C 4,0 km/h (1 Bft)
22.11.2013 02:55 1,1 C 92 % 998,6 hPa 0,0 l/m 3,1 km/h (1 Bft) N-NW 337 -0,1 C 0,7 C 4,0 km/h (1 Bft)
22.11.2013 03:00 1,1 C 92 % 998,6 hPa 0,0 l/m 3,1 km/h (1 Bft) N 360 -0,1 C 0,7 C 4,0 km/h (1 Bft)
22.11.2013 03:05 1,1 C 92 % 999,1 hPa 0,0 l/m 4,3 km/h (1 Bft) NO 45 -0,1 C 0,0 C 2,9 km/h (1 Bft)
22.11.2013 03:10 1,1 C 92 % 999,1 hPa 0,0 l/m 3,7 km/h (1 Bft) N 360 -0,1 C 0,3 C 7,2 km/h (2 Bft)
22.11.2013 03:15 1,1 C 92 % 999,1 hPa 0,0 l/m 2,7 km/h (1 Bft) W-NW 292 -0,1 C 0,8 C 4,7 km/h (1 Bft)
22.11.2013 03:20 1,1 C 92 % 999,1 hPa 0,0 l/m 2,3 km/h (1 Bft) W 270 -0,1 C 1,0 C 0,0 km/h (0 Bft)
22.11.2013 03:25 1,1 C 92 % 998,6 hPa 0,0 l/m 1,3 km/h (1 Bft) N 360 -0,1 C 1,0 C 2,6 km/h (1 Bft)
22.11.2013 03:30 1,1 C 92 % 998,6 hPa 0,0 l/m 1,3 km/h (1 Bft) O 90 -0,1 C 1,0 C 4,0 km/h (1 Bft)
22.11.2013 03:35 1,1 C 92 % 998,6 hPa 0,0 l/m 1,9 km/h (1 Bft) SO 135 -0,1 C 1,0 C 0,0 km/h (0 Bft)
22.11.2013 03:40 1,1 C 92 % 998,6 hPa 0,0 l/m 1,1 km/h (1 Bft) SO 135 -0,1 C 1,1 C 0,0 km/h (0 Bft)
22.11.2013 03:45 1,1 C 92 % 999,0 hPa 0,0 l/m 1,0 km/h (0 Bft) S-SO 157 -0,1 C 1,1 C 3,2 km/h (1 Bft)
22.11.2013 03:50 1,1 C 92 % 999,0 hPa 0,0 l/m 1,6 km/h (1 Bft) SO 135 -0,1 C 1,1 C 1,6 km/h (1 Bft)
22.11.2013 03:55 1,1 C 92 % 999,0 hPa 0,0 l/m 1,4 km/h (1 Bft) SO 135 -0,1 C 1,1 C 0,0 km/h (0 Bft)
22.11.2013 04:00 1,1 C 92 % 999,0 hPa 0,0 l/m 1,6 km/h (1 Bft) W-NW 292 -0,1 C 1,1 C 5,1 km/h (1 Bft)
22.11.2013 04:05 1,1 C 92 % 998,8 hPa 0,0 l/m 2,1 km/h (1 Bft) SW 225 -0,1 C 1,1 C 0,0 km/h (0 Bft)
22.11.2013 04:10 1,1 C 92 % 998,8 hPa 0,0 l/m 1,6 km/h (1 Bft) SW 225 -0,1 C 1,1 C 0,0 km/h (0 Bft)
22.11.2013 04:15 1,1 C 92 % 998,8 hPa 0,0 l/m 1,0 km/h (0 Bft) N-NO 22 -0,1 C 1,1 C 0,0 km/h (0 Bft)
22.11.2013 04:20 1,1 C 92 % 998,8 hPa 0,0 l/m 1,1 km/h (1 Bft) NO 45 -0,1 C 1,1 C 1,8 km/h (1 Bft)
22.11.2013 04:25 1,1 C 92 % 998,9 hPa 0,0 l/m 0,5 km/h (0 Bft) N 360 -0,1 C 1,1 C 0,0 km/h (0 Bft)
22.11.2013 04:30 1,1 C 92 % 998,9 hPa 0,0 l/m 1,0 km/h (0 Bft) W-NW 292 -0,1 C 1,1 C 2,9 km/h (1 Bft)
22.11.2013 04:35 1,1 C 92 % 998,9 hPa 0,0 l/m 2,1 km/h (1 Bft) N 360 -0,1 C 1,1 C 6,3 km/h (2 Bft)
22.11.2013 04:40 1,1 C 92 % 998,9 hPa 0,0 l/m 2,6 km/h (1 Bft) N-NW 337 -0,1 C 1,1 C 2,4 km/h (1 Bft)
22.11.2013 04:45 0,9 C 92 % 998,9 hPa 0,0 l/m 2,9 km/h (1 Bft) N-NW 337 -0,2 C 0,6 C 0,0 km/h (0 Bft)
22.11.2013 04:50 0,7 C 92 % 998,9 hPa 0,0 l/m 1,6 km/h (1 Bft) N-NO 22 -0,4 C 0,8 C 0,0 km/h (0 Bft)
22.11.2013 04:55 0,7 C 92 % 998,9 hPa 0,0 l/m 1,8 km/h (1 Bft) NO 45 -0,4 C 0,7 C 2,9 km/h (1 Bft)
22.11.2013 05:00 0,7 C 92 % 998,9 hPa 0,0 l/m 2,1 km/h (1 Bft) O 90 -0,4 C 0,7 C 0,0 km/h (0 Bft)
22.11.2013 05:05 0,7 C 92 % 999,4 hPa 0,0 l/m 0,6 km/h (0 Bft) N 360 -0,4 C 0,6 C 0,0 km/h (0 Bft)
22.11.2013 05:10 0,7 C 92 % 999,4 hPa 0,0 l/m 0,8 km/h (0 Bft) O 90 -0,4 C 0,6 C 3,1 km/h (1 Bft)
22.11.2013 05:15 0,9 C 92 % 999,4 hPa 0,0 l/m 1,6 km/h (1 Bft) N-NW 337 -0,2 C 0,7 C 2,6 km/h (1 Bft)
22.11.2013 05:20 0,9 C 92 % 999,4 hPa 0,0 l/m 1,6 km/h (1 Bft) N-NW 337 -0,2 C 0,7 C 3,5 km/h (1 Bft)
22.11.2013 05:25 0,9 C 92 % 999,1 hPa 0,0 l/m 1,0 km/h (0 Bft) N 360 -0,2 C 0,7 C 0,0 km/h (0 Bft)
22.11.2013 05:30 0,9 C 92 % 999,1 hPa 0,0 l/m 0,5 km/h (0 Bft) NO 45 -0,2 C 0,7 C 1,6 km/h (1 Bft)
22.11.2013 05:35 1,0 C 92 % 999,1 hPa 0,0 l/m 1,0 km/h (0 Bft) O 90 -0,2 C 0,8 C 0,0 km/h (0 Bft)
22.11.2013 05:40 1,0 C 92 % 999,1 hPa 0,0 l/m 1,0 km/h (0 Bft) O 90 -0,2 C 0,8 C 0,0 km/h (0 Bft)
22.11.2013 05:45 1,0 C 92 % 999,7 hPa 0,0 l/m 0,8 km/h (0 Bft) N-NO 22 -0,2 C 0,9 C 0,0 km/h (0 Bft)
22.11.2013 05:50 1,0 C 92 % 999,7 hPa 0,0 l/m 0,8 km/h (0 Bft) N 360 -0,2 C 1,0 C 0,0 km/h (0 Bft)
22.11.2013 05:55 1,0 C 92 % 999,7 hPa 0,0 l/m 0,0 km/h (0 Bft) N 360 -0,2 C 0,9 C 0,0 km/h (0 Bft)
22.11.2013 06:00 1,0 C 92 % 999,7 hPa 0,0 l/m 0,0 km/h (0 Bft) N 360 -0,2 C 1,0 C 0,0 km/h (0 Bft)
22.11.2013 06:05 1,0 C 92 % 999,6 hPa 0,0 l/m 0,2 km/h (0 Bft) N 360 -0,2 C 0,9 C 0,0 km/h (0 Bft)
22.11.2013 06:10 1,0 C 92 % 999,6 hPa 0,0 l/m 0,2 km/h (0 Bft) N 360 -0,2 C 0,9 C 0,0 km/h (0 Bft)
22.11.2013 06:15 1,1 C 92 % 999,6 hPa 0,0 l/m 0,2 km/h (0 Bft) O-NO 67 -0,1 C 0,9 C 0,0 km/h (0 Bft)
22.11.2013 06:20 1,1 C 92 % 999,6 hPa 0,0 l/m 0,2 km/h (0 Bft) O-NO 67 -0,1 C 1,0 C 0,0 km/h (0 Bft)
22.11.2013 06:25 1,1 C 92 % 999,8 hPa 0,0 l/m 0,3 km/h (0 Bft) O 90 -0,1 C 1,0 C 2,3 km/h (1 Bft)
22.11.2013 06:30 1,1 C 92 % 999,8 hPa 0,0 l/m 0,3 km/h (0 Bft) O 90 -0,1 C 1,0 C 0,0 km/h (0 Bft)
22.11.2013 06:35 1,1 C 92 % 999,8 hPa 0,0 l/m 0,3 km/h (0 Bft) O 90 -0,1 C 1,0 C 0,0 km/h (0 Bft)
22.11.2013 06:40 1,1 C 92 % 999,8 hPa 0,0 l/m 0,0 km/h (0 Bft) O 90 -0,1 C 1,0 C 0,0 km/h (0 Bft)
22.11.2013 06:45 1,1 C 92 % 999,9 hPa 0,0 l/m 0,0 km/h (0 Bft) O 90 -0,1 C 1,0 C 0,0 km/h (0 Bft)
22.11.2013 06:50 1,1 C 92 % 999,9 hPa 0,0 l/m 0,0 km/h (0 Bft) O 90 -0,1 C 1,0 C 0,0 km/h (0 Bft)
22.11.2013 06:55 1,1 C 92 % 999,9 hPa 0,0 l/m 0,5 km/h (0 Bft) NO 45 -0,1 C 1,0 C 2,4 km/h (1 Bft)
22.11.2013 07:00 1,1 C 92 % 999,9 hPa 0,0 l/m 1,0 km/h (0 Bft) O-NO 67 -0,1 C 1,0 C 0,0 km/h (0 Bft)
22.11.2013 07:05 1,1 C 92 % 1000,1 hPa 0,0 l/m 0,6 km/h (0 Bft) NO 45 -0,1 C 1,1 C 0,0 km/h (0 Bft)
22.11.2013 07:10 1,1 C 92 % 1000,1 hPa 0,0 l/m 0,0 km/h (0 Bft) O 90 -0,1 C 1,0 C 0,0 km/h (0 Bft)
22.11.2013 07:15 1,1 C 92 % 1000,1 hPa 0,0 l/m 0,2 km/h (0 Bft) O 90 -0,1 C 1,0 C 0,0 km/h (0 Bft)
22.11.2013 07:20 1,1 C 92 % 1000,1 hPa 0,0 l/m 0,5 km/h (0 Bft) O-NO 67 -0,1 C 1,0 C 2,9 km/h (1 Bft)
22.11.2013 07:21 1,1 C 92 % 1000,4 hPa 0,0 l/m 1,4 km/h (1 Bft) O 90 -0,1 C 1,0 C 1,9 km/h (1 Bft)
22.11.2013 07:25 1,1 C 92 % 1000,4 hPa 0,0 l/m 1,3 km/h (1 Bft) NO 45 -0,1 C 1,0 C 0,0 km/h (0 Bft)
22.11.2013 07:30 1,0 C 92 % 1000,4 hPa 0,0 l/m 0,2 km/h (0 Bft) NO 45 -0,2 C 1,0 C 0,0 km/h (0 Bft)
22.11.2013 07:35 1,0 C 92 % 1000,4 hPa 0,0 l/m 0,6 km/h (0 Bft) O 90 -0,2 C 0,9 C 3,2 km/h (1 Bft)
22.11.2013 07:40 1,0 C 92 % 1000,6 hPa 0,0 l/m 1,6 km/h (1 Bft) O 90 -0,2 C 0,9 C 0,0 km/h (0 Bft)
22.11.2013 07:45 1,0 C 92 % 1000,6 hPa 0,0 l/m 1,6 km/h (1 Bft) NO 45 -0,2 C 0,9 C 0,0 km/h (0 Bft)
22.11.2013 07:50 0,9 C 92 % 1000,6 hPa 0,0 l/m 0,3 km/h (0 Bft) O 90 -0,2 C 0,9 C 0,0 km/h (0 Bft)
22.11.2013 07:55 1,0 C 92 % 1000,6 hPa 0,0 l/m 0,5 km/h (0 Bft) O-SO 112 -0,2 C 0,8 C 2,7 km/h (1 Bft)
22.11.2013 08:00 1,0 C 92 % 1000,8 hPa 0,0 l/m 1,6 km/h (1 Bft) O-NO 67 -0,2 C 0,9 C 2,4 km/h (1 Bft)
22.11.2013 08:05 0,9 C 92 % 1000,8 hPa 0,0 l/m 1,8 km/h (1 Bft) O 90 -0,2 C 0,9 C 0,0 km/h (0 Bft)
22.11.2013 08:10 0,9 C 92 % 1000,8 hPa 0,0 l/m 0,8 km/h (0 Bft) O-SO 112 -0,2 C 0,9 C 0,0 km/h (0 Bft)
22.11.2013 08:15 1,0 C 92 % 1000,8 hPa 0,0 l/m 0,2 km/h (0 Bft) NO 45 -0,2 C 0,9 C 0,0 km/h (0 Bft)
22.11.2013 08:20 1,0 C 92 % 1000,8 hPa 0,0 l/m 0,0 km/h (0 Bft) NO 45 -0,2 C 0,9 C 0,0 km/h (0 Bft)
22.11.2013 08:25 1,1 C 92 % 1000,8 hPa 0,0 l/m 0,0 km/h (0 Bft) NO 45 -0,1 C 1,0 C 0,0 km/h (0 Bft)
22.11.2013 08:30 1,3 C 92 % 1000,8 hPa 0,0 l/m 0,0 km/h (0 Bft) N-NO 22 0,1 C 1,1 C 0,0 km/h (0 Bft)
22.11.2013 08:35 1,3 C 93 % 1000,8 hPa 0,0 l/m 0,0 km/h (0 Bft) N-NO 22 0,3 C 1,2 C 0,0 km/h (0 Bft)
22.11.2013 08:40 1,4 C 92 % 1000,8 hPa 0,0 l/m 0,0 km/h (0 Bft) N-NO 22 0,2 C 1,3 C 0,0 km/h (0 Bft)
22.11.2013 08:45 1,4 C 93 % 1000,8 hPa 0,0 l/m 0,0 km/h (0 Bft) NO 45 0,4 C 1,4 C 0,0 km/h (0 Bft)
22.11.2013 08:50 1,5 C 93 % 1000,8 hPa 0,0 l/m 0,0 km/h (0 Bft) NO 45 0,5 C 1,4 C 0,0 km/h (0 Bft)
22.11.2013 08:55 1,6 C 93 % 1000,8 hPa 0,0 l/m 0,0 km/h (0 Bft) N-NO 22 0,6 C 1,5 C 0,0 km/h (0 Bft)
22.11.2013 09:00 1,7 C 93 % 1001,0 hPa 0,0 l/m 0,2 km/h (0 Bft) N-NO 22 0,7 C 1,6 C 0,0 km/h (0 Bft)
22.11.2013 09:05 1,7 C 92 % 1001,0 hPa 0,0 l/m 0,2 km/h (0 Bft) N-NO 22 0,5 C 1,7 C 0,0 km/h (0 Bft)
22.11.2013 09:10 1,8 C 92 % 1001,0 hPa 0,0 l/m 0,0 km/h (0 Bft) O 90 0,6 C 1,9 C 0,0 km/h (0 Bft)
22.11.2013 09:15 1,9 C 92 % 1001,0 hPa 0,0 l/m 0,0 km/h (0 Bft) N-NO 22 0,7 C 2,0 C 0,0 km/h (0 Bft)
22.11.2013 09:20 2,2 C 92 % 1001,3 hPa 0,0 l/m 0,0 km/h (0 Bft) SO 135 1,0 C 2,1 C 0,0 km/h (0 Bft)
22.11.2013 09:25 2,3 C 92 % 1001,3 hPa 0,0 l/m 0,3 km/h (0 Bft) SO 135 1,1 C 2,4 C 0,0 km/h (0 Bft)
22.11.2013 09:30 2,7 C 92 % 1001,3 hPa 0,0 l/m 0,3 km/h (0 Bft) SO 135 1,5 C 2,9 C 0,0 km/h (0 Bft)
22.11.2013 09:35 3,0 C 90 % 1001,3 hPa 0,0 l/m 0,5 km/h (0 Bft) S 180 1,5 C 3,3 C 0,0 km/h (0 Bft)
22.11.2013 09:40 3,3 C 90 % 1001,9 hPa 0,0 l/m 0,8 km/h (0 Bft) W-NW 292 1,8 C 3,9 C 0,0 km/h (0 Bft)
22.11.2013 09:45 3,2 C 89 % 1001,9 hPa 0,0 l/m 1,0 km/h (0 Bft) W-NW 292 1,6 C 4,0 C 2,1 km/h (1 Bft)
22.11.2013 09:50 3,3 C 88 % 1001,9 hPa 0,0 l/m 1,1 km/h (1 Bft) S-SW 202 1,5 C 4,1 C 0,0 km/h (0 Bft)
22.11.2013 09:55 3,6 C 88 % 1001,9 hPa 0,0 l/m 0,8 km/h (0 Bft) W 270 1,8 C 4,3 C 2,3 km/h (1 Bft)
22.11.2013 10:00 3,8 C 88 % 1002,2 hPa 0,0 l/m 0,6 km/h (0 Bft) W-NW 292 2,0 C 4,5 C 1,6 km/h (1 Bft)
22.11.2013 10:05 3,6 C 86 % 1002,2 hPa 0,0 l/m 0,6 km/h (0 Bft) W-SW 247 1,5 C 4,6 C 0,0 km/h (0 Bft)
22.11.2013 10:10 4,0 C 86 % 1002,2 hPa 0,0 l/m 0,2 km/h (0 Bft) N 360 1,9 C 5,2 C 0,0 km/h (0 Bft)
22.11.2013 10:15 3,4 C 83 % 1002,2 hPa 0,0 l/m 0,6 km/h (0 Bft) N-NW 337 0,8 C 5,2 C 2,9 km/h (1 Bft)
22.11.2013 10:20 3,2 C 82 % 1002,3 hPa 0,0 l/m 1,1 km/h (1 Bft) N 360 0,4 C 4,7 C 1,8 km/h (1 Bft)
22.11.2013 10:25 3,1 C 81 % 1002,3 hPa 0,0 l/m 1,6 km/h (1 Bft) NW 315 0,2 C 4,4 C 3,9 km/h (1 Bft)
22.11.2013 10:30 3,0 C 80 % 1002,3 hPa 0,0 l/m 2,1 km/h (1 Bft) NW 315 -0,1 C 4,2 C 2,9 km/h (1 Bft)
22.11.2013 10:35 3,1 C 80 % 1002,3 hPa 0,0 l/m 1,6 km/h (1 Bft) NW 315 -0,0 C 4,0 C 0,0 km/h (0 Bft)
22.11.2013 10:40 3,3 C 80 % 1002,4 hPa 0,0 l/m 1,8 km/h (1 Bft) W 270 0,2 C 4,0 C 1,6 km/h (1 Bft)
22.11.2013 10:45 3,2 C 80 % 1002,4 hPa 0,0 l/m 1,4 km/h (1 Bft) W-NW 292 0,1 C 3,9 C 2,1 km/h (1 Bft)
22.11.2013 10:50 3,5 C 80 % 1002,4 hPa 0,0 l/m 0,8 km/h (0 Bft) W-SW 247 0,4 C 4,0 C 0,0 km/h (0 Bft)
22.11.2013 10:55 3,5 C 80 % 1002,4 hPa 0,0 l/m 0,5 km/h (0 Bft) W 270 0,4 C 4,1 C 0,0 km/h (0 Bft)
22.11.2013 11:00 3,7 C 80 % 1002,4 hPa 0,0 l/m 0,0 km/h (0 Bft) N-NW 337 0,6 C 4,4 C 0,0 km/h (0 Bft)
22.11.2013 11:05 3,8 C 80 % 1002,4 hPa 0,0 l/m 0,0 km/h (0 Bft) N-NW 337 0,7 C 4,6 C 0,0 km/h (0 Bft)
22.11.2013 11:10 4,4 C 80 % 1002,4 hPa 0,0 l/m 0,0 km/h (0 Bft) N 360 1,3 C 5,1 C 0,0 km/h (0 Bft)
22.11.2013 11:15 4,4 C 78 % 1002,4 hPa 0,0 l/m 1,0 km/h (0 Bft) NW 315 0,9 C 5,3 C 5,3 km/h (1 Bft)
22.11.2013 11:20 4,2 C 78 % 1002,7 hPa 0,0 l/m 2,7 km/h (1 Bft) S 180 0,7 C 5,2 C 3,4 km/h (1 Bft)
22.11.2013 11:25 4,3 C 78 % 1002,7 hPa 0,0 l/m 2,6 km/h (1 Bft) W-SW 247 0,8 C 5,2 C 3,2 km/h (1 Bft)
22.11.2013 11:30 4,7 C 77 % 1002,7 hPa 0,0 l/m 1,3 km/h (1 Bft) S-SO 157 1,0 C 5,5 C 1,9 km/h (1 Bft)
22.11.2013 11:35 5,0 C 76 % 1002,7 hPa 0,0 l/m 0,8 km/h (0 Bft) S-SO 157 1,1 C 5,8 C 0,0 km/h (0 Bft)
22.11.2013 11:40 5,5 C 75 % 1003,1 hPa 0,0 l/m 1,0 km/h (0 Bft) S 180 1,4 C 6,4 C 0,0 km/h (0 Bft)
22.11.2013 11:45 5,4 C 73 % 1003,1 hPa 0,0 l/m 1,0 km/h (0 Bft) S 180 1,0 C 6,8 C 1,9 km/h (1 Bft)
22.11.2013 11:50 5,7 C 73 % 1003,1 hPa 0,0 l/m 1,3 km/h (1 Bft) S 180 1,2 C 7,1 C 1,6 km/h (1 Bft)
22.11.2013 11:55 5,8 C 72 % 1003,1 hPa 0,0 l/m 2,1 km/h (1 Bft) O 90 1,2 C 7,4 C 3,5 km/h (1 Bft)
22.11.2013 12:00 5,6 C 72 % 1003,2 hPa 0,0 l/m 2,3 km/h (1 Bft) O-NO 67 1,0 C 7,7 C 4,7 km/h (1 Bft)
22.11.2013 12:05 5,4 C 71 % 1003,2 hPa 0,0 l/m 2,9 km/h (1 Bft) NW 315 0,6 C 7,5 C 3,2 km/h (1 Bft)
22.11.2013 12:10 4,4 C 70 % 1003,2 hPa 0,0 l/m 4,7 km/h (1 Bft) N-NW 337 -0,6 C 6,2 C 6,1 km/h (2 Bft)
22.11.2013 12:15 4,5 C 71 % 1003,2 hPa 0,0 l/m 4,5 km/h (1 Bft) N 360 -0,3 C 5,7 C 4,0 km/h (1 Bft)
22.11.2013 12:20 4,7 C 72 % 1003,0 hPa 0,0 l/m 3,4 km/h (1 Bft) W-NW 292 0,1 C 5,7 C 0,0 km/h (0 Bft)
22.11.2013 12:25 4,5 C 72 % 1003,0 hPa 0,0 l/m 2,4 km/h (1 Bft) N-NW 337 -0,1 C 5,8 C 0,0 km/h (0 Bft)
22.11.2013 12:30 4,6 C 70 % 1003,0 hPa 0,0 l/m 2,3 km/h (1 Bft) W-NW 292 -0,4 C 5,8 C 3,4 km/h (1 Bft)
22.11.2013 12:35 4,8 C 71 % 1003,0 hPa 0,0 l/m 2,3 km/h (1 Bft) W-NW 292 -0,0 C 5,7 C 0,0 km/h (0 Bft)
22.11.2013 12:40 4,9 C 72 % 1002,9 hPa 0,0 l/m 1,1 km/h (1 Bft) W-NW 292 0,3 C 5,8 C 2,9 km/h (1 Bft)
22.11.2013 12:45 4,9 C 72 % 1002,9 hPa 0,0 l/m 1,9 km/h (1 Bft) W 270 0,3 C 5,8 C 6,4 km/h (2 Bft)
22.11.2013 12:50 4,9 C 72 % 1002,9 hPa 0,0 l/m 3,1 km/h (1 Bft) W-NW 292 0,3 C 5,6 C 2,6 km/h (1 Bft)
22.11.2013 12:55 4,7 C 72 % 1002,9 hPa 0,0 l/m 3,2 km/h (1 Bft) W 270 0,1 C 5,4 C 3,2 km/h (1 Bft)
22.11.2013 13:00 4,5 C 71 % 1003,0 hPa 0,0 l/m 2,9 km/h (1 Bft) W-NW 292 -0,3 C 5,3 C 2,4 km/h (1 Bft)
22.11.2013 13:05 4,3 C 71 % 1003,0 hPa 0,0 l/m 2,3 km/h (1 Bft) W-NW 292 -0,5 C 5,2 C 0,0 km/h (0 Bft)
22.11.2013 13:10 4,7 C 72 % 1003,0 hPa 0,0 l/m 0,8 km/h (0 Bft) S-SW 202 0,1 C 5,4 C 3,2 km/h (1 Bft)
22.11.2013 13:15 5,1 C 72 % 1003,0 hPa 0,0 l/m 0,8 km/h (0 Bft) S-SW 202 0,5 C 5,7 C 1,9 km/h (1 Bft)
22.11.2013 13:20 5,2 C 72 % 1003,4 hPa 0,0 l/m 1,0 km/h (0 Bft) S-SW 202 0,6 C 6,1 C 0,0 km/h (0 Bft)
22.11.2013 13:25 5,3 C 71 % 1003,4 hPa 0,0 l/m 0,2 km/h (0 Bft) W-SW 247 0,5 C 6,4 C 0,0 km/h (0 Bft)
22.11.2013 13:30 5,2 C 69 % 1003,4 hPa 0,0 l/m 0,0 km/h (0 Bft) SW 225 -0,0 C 6,7 C 2,4 km/h (1 Bft)
22.11.2013 13:35 5,0 C 69 % 1003,4 hPa 0,0 l/m 1,3 km/h (1 Bft) W-NW 292 -0,2 C 6,7 C 4,8 km/h (1 Bft)
22.11.2013 13:40 5,0 C 69 % 1003,8 hPa 0,0 l/m 2,9 km/h (1 Bft) W 270 -0,2 C 6,2 C 6,1 km/h (2 Bft)
22.11.2013 13:45 4,7 C 69 % 1003,8 hPa 0,0 l/m 3,4 km/h (1 Bft) W 270 -0,5 C 5,8 C 2,6 km/h (1 Bft)
22.11.2013 13:50 4,7 C 71 % 1003,8 hPa 0,0 l/m 2,6 km/h (1 Bft) S-SW 202 -0,1 C 5,7 C 4,0 km/h (1 Bft)
22.11.2013 13:55 4,8 C 71 % 1003,8 hPa 0,0 l/m 1,6 km/h (1 Bft) S-SW 202 -0,0 C 5,5 C 3,7 km/h (1 Bft)
22.11.2013 14:00 5,0 C 71 % 1003,6 hPa 0,0 l/m 3,2 km/h (1 Bft) S-SW 202 0,2 C 5,4 C 6,9 km/h (2 Bft)
22.11.2013 14:05 4,9 C 72 % 1003,6 hPa 0,0 l/m 4,5 km/h (1 Bft) W-SW 247 0,3 C 4,8 C 6,0 km/h (2 Bft)
22.11.2013 14:10 4,9 C 72 % 1003,6 hPa 0,0 l/m 4,7 km/h (1 Bft) W-SW 247 0,3 C 4,8 C 6,4 km/h (2 Bft)
22.11.2013 14:15 4,8 C 72 % 1003,6 hPa 0,0 l/m 4,0 km/h (1 Bft) S 180 0,2 C 5,1 C 2,1 km/h (1 Bft)
22.11.2013 14:20 4,6 C 73 % 1003,8 hPa 0,0 l/m 4,2 km/h (1 Bft) S 180 0,2 C 4,7 C 5,0 km/h (1 Bft)
22.11.2013 14:25 4,5 C 73 % 1003,8 hPa 0,0 l/m 3,5 km/h (1 Bft) SW 225 0,1 C 4,8 C 3,7 km/h (1 Bft)
22.11.2013 14:30 4,2 C 74 % 1003,8 hPa 0,0 l/m 3,4 km/h (1 Bft) S 180 -0,0 C 4,6 C 3,2 km/h (1 Bft)
22.11.2013 14:35 4,0 C 74 % 1003,8 hPa 0,0 l/m 3,7 km/h (1 Bft) S 180 -0,2 C 4,2 C 3,7 km/h (1 Bft)
22.11.2013 14:40 3,9 C 75 % 1004,2 hPa 0,0 l/m 3,9 km/h (1 Bft) S 180 -0,1 C 3,9 C 4,2 km/h (1 Bft)
22.11.2013 14:45 3,8 C 75 % 1004,2 hPa 0,0 l/m 4,0 km/h (1 Bft) S 180 -0,2 C 3,7 C 7,4 km/h (2 Bft)
22.11.2013 14:50 3,9 C 75 % 1004,2 hPa 0,0 l/m 3,5 km/h (1 Bft) S 180 -0,1 C 3,9 C 3,9 km/h (1 Bft)
22.11.2013 14:55 3,9 C 75 % 1004,2 hPa 0,0 l/m 2,6 km/h (1 Bft) S-SO 157 -0,1 C 4,2 C 3,2 km/h (1 Bft)
22.11.2013 15:00 3,8 C 76 % 1004,1 hPa 0,0 l/m 2,9 km/h (1 Bft) W-NW 292 -0,0 C 4,2 C 5,6 km/h (1 Bft)
22.11.2013 15:05 3,8 C 76 % 1004,1 hPa 0,0 l/m 3,2 km/h (1 Bft) W 270 -0,0 C 4,1 C 3,9 km/h (1 Bft)
22.11.2013 15:10 3,8 C 76 % 1004,1 hPa 0,0 l/m 1,9 km/h (1 Bft) W-SW 247 -0,0 C 4,2 C 0,0 km/h (0 Bft)
22.11.2013 15:15 3,9 C 77 % 1004,1 hPa 0,0 l/m 0,6 km/h (0 Bft) W 270 0,2 C 4,3 C 0,0 km/h (0 Bft)
22.11.2013 15:20 3,8 C 77 % 1004,5 hPa 0,0 l/m 0,0 km/h (0 Bft) W 270 0,1 C 4,3 C 0,0 km/h (0 Bft)
22.11.2013 15:25 3,8 C 77 % 1004,5 hPa 0,0 l/m 0,2 km/h (0 Bft) W 270 0,1 C 4,2 C 0,0 km/h (0 Bft)
22.11.2013 15:30 3,4 C 77 % 1004,5 hPa 0,0 l/m 0,0 km/h (0 Bft) W-SW 247 -0,2 C 4,0 C 0,0 km/h (0 Bft)
22.11.2013 15:35 3,2 C 77 % 1004,5 hPa 0,0 l/m 0,2 km/h (0 Bft) W-SW 247 -0,4 C 3,7 C 0,0 km/h (0 Bft)
22.11.2013 15:40 2,8 C 78 % 1004,6 hPa 0,0 l/m 0,2 km/h (0 Bft) W-SW 247 -0,6 C 3,4 C 0,0 km/h (0 Bft)
22.11.2013 15:45 2,5 C 78 % 1004,6 hPa 0,0 l/m 0,2 km/h (0 Bft) W-SW 247 -0,9 C 2,9 C 2,1 km/h (1 Bft)
22.11.2013 15:50 2,3 C 79 % 1004,6 hPa 0,0 l/m 0,3 km/h (0 Bft) W-SW 247 -1,0 C 2,6 C 0,0 km/h (0 Bft)
22.11.2013 15:55 1,9 C 79 % 1004,6 hPa 0,0 l/m 0,3 km/h (0 Bft) W-SW 247 -1,3 C 2,2 C 0,0 km/h (0 Bft)
22.11.2013 16:00 1,8 C 80 % 1004,8 hPa 0,0 l/m 0,0 km/h (0 Bft) W-NW 292 -1,3 C 2,0 C 0,0 km/h (0 Bft)
22.11.2013 16:05 1,9 C 81 % 1004,8 hPa 0,0 l/m 0,2 km/h (0 Bft) W-SW 247 -1,0 C 1,8 C 0,0 km/h (0 Bft)
22.11.2013 16:10 2,2 C 82 % 1004,8 hPa 0,0 l/m 0,2 km/h (0 Bft) SW 225 -0,5 C 1,8 C 0,0 km/h (0 Bft)
22.11.2013 16:15 2,1 C 82 % 1004,8 hPa 0,0 l/m 0,2 km/h (0 Bft) SW 225 -0,6 C 1,8 C 0,0 km/h (0 Bft)
22.11.2013 16:20 2,0 C 82 % 1005,1 hPa 0,0 l/m 0,6 km/h (0 Bft) SO 135 -0,7 C 1,7 C 3,5 km/h (1 Bft)
22.11.2013 16:25 2,2 C 83 % 1005,1 hPa 0,0 l/m 1,3 km/h (1 Bft) SO 135 -0,4 C 1,9 C 0,0 km/h (0 Bft)
22.11.2013 16:30 2,1 C 83 % 1005,1 hPa 0,0 l/m 1,0 km/h (0 Bft) S-SO 157 -0,5 C 2,0 C 0,0 km/h (0 Bft)
22.11.2013 16:35 2,0 C 83 % 1005,1 hPa 0,0 l/m 0,0 km/h (0 Bft) S-SO 157 -0,6 C 1,9 C 0,0 km/h (0 Bft)
22.11.2013 16:40 2,0 C 83 % 1005,0 hPa 0,0 l/m 0,5 km/h (0 Bft) O 90 -0,6 C 1,7 C 4,7 km/h (1 Bft)
22.11.2013 16:45 2,2 C 83 % 1005,0 hPa 0,0 l/m 1,9 km/h (1 Bft) NO 45 -0,4 C 1,9 C 4,2 km/h (1 Bft)
22.11.2013 16:50 2,2 C 83 % 1005,0 hPa 0,0 l/m 3,2 km/h (1 Bft) O 90 -0,4 C 1,7 C 1,8 km/h (1 Bft)
22.11.2013 16:55 2,4 C 83 % 1005,0 hPa 0,0 l/m 2,4 km/h (1 Bft) O-SO 112 -0,2 C 2,2 C 2,7 km/h (1 Bft)
22.11.2013 17:00 2,4 C 84 % 1005,5 hPa 0,0 l/m 1,8 km/h (1 Bft) O 90 -0,0 C 2,4 C 0,0 km/h (0 Bft)
22.11.2013 17:05 2,4 C 84 % 1005,5 hPa 0,0 l/m 1,1 km/h (1 Bft) O 90 -0,0 C 2,5 C 0,0 km/h (0 Bft)
22.11.2013 17:10 2,4 C 84 % 1005,5 hPa 0,0 l/m 0,2 km/h (0 Bft) O-NO 67 -0,0 C 2,4 C 0,0 km/h (0 Bft)
22.11.2013 17:15 2,3 C 84 % 1005,5 hPa 0,0 l/m 0,0 km/h (0 Bft) O-SO 112 -0,1 C 2,4 C 0,0 km/h (0 Bft)
22.11.2013 17:20 2,3 C 84 % 1005,6 hPa 0,0 l/m 0,0 km/h (0 Bft) O-SO 112 -0,1 C 2,4 C 0,0 km/h (0 Bft)
22.11.2013 17:25 2,3 C 84 % 1005,6 hPa 0,0 l/m 0,0 km/h (0 Bft) O-SO 112 -0,1 C 2,4 C 0,0 km/h (0 Bft)
22.11.2013 17:30 2,3 C 84 % 1005,6 hPa 0,0 l/m 0,0 km/h (0 Bft) O-SO 112 -0,1 C 2,4 C 0,0 km/h (0 Bft)
22.11.2013 17:35 2,3 C 84 % 1005,6 hPa 0,0 l/m 0,2 km/h (0 Bft) N-NO 22 -0,1 C 2,4 C 1,9 km/h (1 Bft)
22.11.2013 17:40 2,4 C 85 % 1006,0 hPa 0,0 l/m 0,6 km/h (0 Bft) N-NO 22 0,1 C 2,4 C 1,8 km/h (1 Bft)
22.11.2013 17:45 2,4 C 85 % 1006,0 hPa 0,0 l/m 0,6 km/h (0 Bft) O 90 0,1 C 2,4 C 2,3 km/h (1 Bft)
22.11.2013 17:50 2,4 C 85 % 1006,0 hPa 0,0 l/m 0,6 km/h (0 Bft) NO 45 0,1 C 2,4 C 0,0 km/h (0 Bft)
22.11.2013 17:55 2,3 C 85 % 1006,0 hPa 0,0 l/m 1,3 km/h (1 Bft) NO 45 0,0 C 2,4 C 2,6 km/h (1 Bft)
22.11.2013 18:00 2,4 C 85 % 1006,4 hPa 0,0 l/m 2,3 km/h (1 Bft) NO 45 0,1 C 2,4 C 2,4 km/h (1 Bft)
22.11.2013 18:05 2,4 C 85 % 1006,4 hPa 0,0 l/m 1,8 km/h (1 Bft) NO 45 0,1 C 2,4 C 0,0 km/h (0 Bft)
22.11.2013 18:10 2,3 C 85 % 1006,4 hPa 0,0 l/m 0,5 km/h (0 Bft) N-NO 22 0,0 C 2,4 C 1,9 km/h (1 Bft)
22.11.2013 18:15 2,3 C 85 % 1006,4 hPa 0,0 l/m 0,5 km/h (0 Bft) N-NO 22 0,0 C 2,4 C 2,1 km/h (1 Bft)
22.11.2013 18:20 2,3 C 85 % 1006,4 hPa 0,0 l/m 0,8 km/h (0 Bft) NO 45 0,0 C 2,4 C 0,0 km/h (0 Bft)
22.11.2013 18:25 2,3 C 85 % 1006,4 hPa 0,0 l/m 0,5 km/h (0 Bft) NO 45 0,0 C 2,4 C 0,0 km/h (0 Bft)
22.11.2013 18:30 2,2 C 85 % 1006,4 hPa 0,0 l/m 0,0 km/h (0 Bft) N-NO 22 -0,1 C 2,3 C 0,0 km/h (0 Bft)
22.11.2013 18:35 2,2 C 85 % 1006,4 hPa 0,0 l/m 0,0 km/h (0 Bft) NO 45 -0,1 C 2,3 C 0,0 km/h (0 Bft)
22.11.2013 18:40 2,2 C 85 % 1006,4 hPa 0,0 l/m 0,0 km/h (0 Bft) NO 45 -0,1 C 2,2 C 0,0 km/h (0 Bft)
22.11.2013 18:45 2,2 C 85 % 1006,4 hPa 0,0 l/m 0,0 km/h (0 Bft) NO 45 -0,1 C 2,2 C 0,0 km/h (0 Bft)
22.11.2013 18:50 2,2 C 85 % 1006,4 hPa 0,0 l/m 0,0 km/h (0 Bft) N-NO 22 -0,1 C 2,2 C 0,0 km/h (0 Bft)
22.11.2013 18:55 2,2 C 86 % 1006,4 hPa 0,0 l/m 0,0 km/h (0 Bft) NO 45 0,1 C 2,2 C 0,0 km/h (0 Bft)
22.11.2013 19:00 2,2 C 86 % 1006,6 hPa 0,0 l/m 0,0 km/h (0 Bft) N 360 0,1 C 2,2 C 0,0 km/h (0 Bft)
22.11.2013 19:05 2,2 C 86 % 1006,6 hPa 0,0 l/m 0,0 km/h (0 Bft) NO 45 0,1 C 2,2 C 0,0 km/h (0 Bft)
22.11.2013 19:10 2,2 C 86 % 1006,6 hPa 0,0 l/m 0,0 km/h (0 Bft) N 360 0,1 C 2,3 C 0,0 km/h (0 Bft)
22.11.2013 19:15 2,2 C 86 % 1006,6 hPa 0,0 l/m 0,3 km/h (0 Bft) W-NW 292 0,1 C 2,3 C 3,7 km/h (1 Bft)
22.11.2013 19:20 2,3 C 86 % 1006,8 hPa 0,0 l/m 0,6 km/h (0 Bft) NO 45 0,2 C 2,3 C 0,0 km/h (0 Bft)
22.11.2013 19:25 2,3 C 86 % 1006,8 hPa 0,0 l/m 0,6 km/h (0 Bft) N-NO 22 0,2 C 2,3 C 0,0 km/h (0 Bft)
22.11.2013 19:30 2,2 C 86 % 1006,8 hPa 0,0 l/m 1,0 km/h (0 Bft) N-NO 22 0,1 C 2,3 C 1,8 km/h (1 Bft)
22.11.2013 19:35 2,2 C 86 % 1006,8 hPa 0,0 l/m 1,8 km/h (1 Bft) O 90 0,1 C 2,3 C 2,7 km/h (1 Bft)
22.11.2013 19:40 2,2 C 86 % 1006,9 hPa 0,0 l/m 1,9 km/h (1 Bft) N-NW 337 0,1 C 2,3 C 1,9 km/h (1 Bft)
22.11.2013 19:45 2,3 C 86 % 1006,9 hPa 0,0 l/m 2,4 km/h (1 Bft) N-NW 337 0,2 C 2,3 C 3,4 km/h (1 Bft)
22.11.2013 19:50 2,2 C 86 % 1006,9 hPa 0,0 l/m 2,4 km/h (1 Bft) N-NW 337 0,1 C 2,3 C 2,3 km/h (1 Bft)
22.11.2013 19:55 2,2 C 86 % 1006,9 hPa 0,0 l/m 1,9 km/h (1 Bft) N-NW 337 0,1 C 2,3 C 5,0 km/h (1 Bft)
22.11.2013 20:00 2,2 C 86 % 1007,2 hPa 0,0 l/m 1,6 km/h (1 Bft) N 360 0,1 C 2,3 C 0,0 km/h (0 Bft)
22.11.2013 20:05 2,2 C 86 % 1007,2 hPa 0,0 l/m 1,1 km/h (1 Bft) N-NW 337 0,1 C 2,3 C 0,0 km/h (0 Bft)
22.11.2013 20:10 2,2 C 86 % 1007,2 hPa 0,0 l/m 0,3 km/h (0 Bft) NW 315 0,1 C 2,2 C 0,0 km/h (0 Bft)
22.11.2013 20:15 2,2 C 86 % 1007,2 hPa 0,0 l/m 0,3 km/h (0 Bft) N-NO 22 0,1 C 2,2 C 0,0 km/h (0 Bft)
22.11.2013 20:20 2,1 C 86 % 1007,1 hPa 0,0 l/m 0,3 km/h (0 Bft) NO 45 0,0 C 2,2 C 4,0 km/h (1 Bft)
22.11.2013 20:25 2,1 C 86 % 1007,1 hPa 0,0 l/m 0,5 km/h (0 Bft) N-NW 337 0,0 C 2,1 C 0,0 km/h (0 Bft)
22.11.2013 20:30 2,1 C 86 % 1007,1 hPa 0,0 l/m 0,5 km/h (0 Bft) N-NW 337 0,0 C 2,1 C 0,0 km/h (0 Bft)
22.11.2013 20:35 2,1 C 86 % 1007,1 hPa 0,0 l/m 0,0 km/h (0 Bft) N-NO 22 0,0 C 2,1 C 0,0 km/h (0 Bft)
22.11.2013 20:40 2,1 C 86 % 1007,4 hPa 0,0 l/m 0,0 km/h (0 Bft) NO 45 0,0 C 2,1 C 0,0 km/h (0 Bft)
22.11.2013 20:45 2,1 C 86 % 1007,4 hPa 0,0 l/m 0,2 km/h (0 Bft) NO 45 0,0 C 2,1 C 0,0 km/h (0 Bft)
22.11.2013 20:50 2,0 C 86 % 1007,4 hPa 0,0 l/m 0,2 km/h (0 Bft) N-NO 22 -0,1 C 2,1 C 0,0 km/h (0 Bft)
22.11.2013 20:55 2,0 C 86 % 1007,4 hPa 0,0 l/m 0,5 km/h (0 Bft) N-NW 337 -0,1 C 2,1 C 1,8 km/h (1 Bft)
22.11.2013 21:00 2,0 C 86 % 1007,6 hPa 0,0 l/m 1,1 km/h (1 Bft) N-NW 337 -0,1 C 2,1 C 3,9 km/h (1 Bft)
22.11.2013 21:05 2,0 C 86 % 1007,6 hPa 0,0 l/m 1,4 km/h (1 Bft) N-NW 337 -0,1 C 2,1 C 1,8 km/h (1 Bft)
22.11.2013 21:10 2,0 C 86 % 1007,6 hPa 0,0 l/m 1,3 km/h (1 Bft) N-NW 337 -0,1 C 2,1 C 1,9 km/h (1 Bft)
22.11.2013 21:15 2,0 C 86 % 1007,6 hPa 0,0 l/m 1,0 km/h (0 Bft) N 360 -0,1 C 2,1 C 2,7 km/h (1 Bft)
22.11.2013 21:20 2,0 C 86 % 1007,8 hPa 0,0 l/m 1,3 km/h (1 Bft) N-NO 22 -0,1 C 2,1 C 2,1 km/h (1 Bft)
22.11.2013 21:25 1,9 C 87 % 1007,8 hPa 0,0 l/m 0,8 km/h (0 Bft) N 360 -0,0 C 2,1 C 0,0 km/h (0 Bft)
22.11.2013 21:30 1,9 C 87 % 1007,8 hPa 0,0 l/m 0,8 km/h (0 Bft) N-NO 22 -0,0 C 2,0 C 3,5 km/h (1 Bft)
22.11.2013 21:35 1,9 C 86 % 1007,8 hPa 0,0 l/m 1,3 km/h (1 Bft) NO 45 -0,2 C 2,0 C 0,0 km/h (0 Bft)
22.11.2013 21:40 1,9 C 86 % 1007,9 hPa 0,0 l/m 1,1 km/h (1 Bft) N 360 -0,2 C 2,0 C 2,7 km/h (1 Bft)
22.11.2013 21:45 1,9 C 86 % 1007,9 hPa 0,0 l/m 0,6 km/h (0 Bft) N 360 -0,2 C 2,0 C 0,0 km/h (0 Bft)
22.11.2013 21:50 1,8 C 86 % 1007,9 hPa 0,0 l/m 0,5 km/h (0 Bft) NO 45 -0,3 C 1,9 C 0,0 km/h (0 Bft)
22.11.2013 21:55 1,8 C 86 % 1007,9 hPa 0,0 l/m 0,0 km/h (0 Bft) O-NO 67 -0,3 C 1,9 C 0,0 km/h (0 Bft)
22.11.2013 22:00 1,8 C 86 % 1007,9 hPa 0,0 l/m 0,0 km/h (0 Bft) N-NW 337 -0,3 C 1,8 C 0,0 km/h (0 Bft)
22.11.2013 22:05 1,8 C 86 % 1007,9 hPa 0,0 l/m 0,0 km/h (0 Bft) N-NW 337 -0,3 C 1,8 C 0,0 km/h (0 Bft)
22.11.2013 22:10 1,8 C 87 % 1007,9 hPa 0,0 l/m 0,0 km/h (0 Bft) N-NW 337 -0,1 C 1,8 C 0,0 km/h (0 Bft)
22.11.2013 22:15 1,7 C 87 % 1007,9 hPa 0,0 l/m 0,0 km/h (0 Bft) N 360 -0,2 C 1,7 C 0,0 km/h (0 Bft)
22.11.2013 22:20 1,7 C 87 % 1007,9 hPa 0,0 l/m 0,0 km/h (0 Bft) N-NW 337 -0,2 C 1,7 C 0,0 km/h (0 Bft)
22.11.2013 22:25 1,7 C 87 % 1007,9 hPa 0,0 l/m 0,0 km/h (0 Bft) N-NW 337 -0,2 C 1,7 C 0,0 km/h (0 Bft)
22.11.2013 22:30 1,6 C 87 % 1007,9 hPa 0,0 l/m 0,2 km/h (0 Bft) O 90 -0,3 C 1,6 C 2,1 km/h (1 Bft)
22.11.2013 22:35 1,6 C 87 % 1007,9 hPa 0,0 l/m 0,2 km/h (0 Bft) O 90 -0,3 C 1,6 C 0,0 km/h (0 Bft)
22.11.2013 22:40 1,6 C 87 % 1007,9 hPa 0,0 l/m 0,2 km/h (0 Bft) N 360 -0,3 C 1,5 C 0,0 km/h (0 Bft)
22.11.2013 22:45 1,5 C 87 % 1007,9 hPa 0,0 l/m 0,0 km/h (0 Bft) N 360 -0,4 C 1,5 C 0,0 km/h (0 Bft)
22.11.2013 22:50 1,6 C 87 % 1007,9 hPa 0,0 l/m 0,5 km/h (0 Bft) O 90 -0,3 C 1,5 C 2,9 km/h (1 Bft)
22.11.2013 22:55 1,6 C 87 % 1007,9 hPa 0,0 l/m 1,0 km/h (0 Bft) O 90 -0,3 C 1,5 C 0,0 km/h (0 Bft)
22.11.2013 23:00 1,5 C 87 % 1008,0 hPa 0,0 l/m 0,6 km/h (0 Bft) O 90 -0,4 C 1,4 C 0,0 km/h (0 Bft)
22.11.2013 23:05 1,5 C 88 % 1008,0 hPa 0,0 l/m 0,0 km/h (0 Bft) N-NO 22 -0,3 C 1,5 C 0,0 km/h (0 Bft)
22.11.2013 23:10 1,5 C 88 % 1008,0 hPa 0,0 l/m 0,0 km/h (0 Bft) NO 45 -0,3 C 1,5 C 0,0 km/h (0 Bft)
22.11.2013 23:15 1,5 C 88 % 1008,0 hPa 0,0 l/m 0,0 km/h (0 Bft) NO 45 -0,3 C 1,5 C 0,0 km/h (0 Bft)
22.11.2013 23:20 1,5 C 88 % 1008,2 hPa 0,0 l/m 0,0 km/h (0 Bft) O-NO 67 -0,3 C 1,5 C 0,0 km/h (0 Bft)
22.11.2013 23:25 1,6 C 88 % 1008,2 hPa 0,0 l/m 0,0 km/h (0 Bft) N-NO 22 -0,2 C 1,5 C 0,0 km/h (0 Bft)
22.11.2013 23:30 1,5 C 88 % 1008,2 hPa 0,0 l/m 0,0 km/h (0 Bft) N-NO 22 -0,3 C 1,5 C 0,0 km/h (0 Bft)
22.11.2013 23:35 1,5 C 88 % 1008,2 hPa 0,0 l/m 0,0 km/h (0 Bft) N-NO 22 -0,3 C 1,5 C 0,0 km/h (0 Bft)
22.11.2013 23:40 1,5 C 88 % 1008,2 hPa 0,0 l/m 0,0 km/h (0 Bft) W-NW 292 -0,3 C 1,5 C 0,0 km/h (0 Bft)
22.11.2013 23:45 1,5 C 88 % 1008,2 hPa 0,0 l/m 0,0 km/h (0 Bft) N-NW 337 -0,3 C 1,5 C 0,0 km/h (0 Bft)
22.11.2013 23:50 1,6 C 88 % 1008,2 hPa 0,0 l/m 0,2 km/h (0 Bft) NO 45 -0,2 C 1,4 C 1,9 km/h (1 Bft)
22.11.2013 23:55 1,6 C 89 % 1008,2 hPa 0,0 l/m 0,8 km/h (0 Bft) NO 45 -0,0 C 1,5 C 2,6 km/h (1 Bft)
_ Min-Zeit 05:10 13:45 01:40 - 23:45 - - 15:55 02:15 23:45
Minimum _ 0,7 C 69 % 998,4 hPa - 0,0 km/h (0 Bft) - - -1,3 C -0,7 C 0,0 km/h (0 Bft)
_ Max-Zeit 11:55 09:00 23:55 23:55 02:15 - - 10:00 12:00 01:05
Maximum _ 5,8 C 93 % 1008,2 hPa 0,0 l/m 6,3 km/h
NO (2 Bft)
- - 2,0 C 7,7 C 14,8 km/h
N-NW (3 Bft)
Durchschnitt _ 2,2 C 86 % 1002,9 hPa #0,0 l/m 1,6 km/h (1 Bft) N-NW - 0,0 C 2,3 C 2,0 km/h (1 Bft)